Regional Weather Roundup
Issued by NWS

Home | Current Version | Previous Version | Graphics & Text | Print | Product List | Glossary On
Versions: 1 2 3 4 5 6 7 8 9 10 11 12 13 14 15 16 17 18 19 20 21 22 23 24 25 26 27 28 29 30 31 32 33 34 35 36 37 38 39 40 41 42 43 44 45 46 47 48 49 50
000
ASUS43 KLOT 281407
RWRIL

ILLINOIS REGIONAL WEATHER ROUNDUP
NATIONAL WEATHER SERVICE CHICAGO/ROMEOVILLE IL
900 AM CDT FRI APR 28 2017

NOTE: "FAIR" INDICATES FEW OR NO CLOUDS BELOW 12,000 FEET WITH NO
SIGNIFICANT WEATHER AND/OR OBSTRUCTIONS TO VISIBILITY.

* THESE STATIONS ARE NOT UNDER NWS QUALITY CONTROL. THEY ALSO MAY NOT
  REPORT WEATHER SUCH AS PRECIPITATION OR FOG.

ILZ001-002-007-009-015-016-024-281500-
NORTHWEST ILLINOIS

CITY           SKY/WX    TMP DP  RH WIND       PRES   REMARKS
MOLINE         PTSUNNY   45  33  63 NE8       29.90F
STERLING*      MOSUNNY   44  36  73 E8        29.92F
SAVANNA*       PTSUNNY   42  33  71 N9        29.93F
$$

ILZ003-004-008-010-011-017-018-281500-
NORTH CENTRAL ILLINOIS

CITY           SKY/WX    TMP DP  RH WIND       PRES   REMARKS
ROCKFORD       CLOUDY    44  32  62 CALM      29.96R
FREEPORT*      MOSUNNY   39  32  75 CALM      29.96R
ROCHELLE*      CLOUDY    44  35  70 CALM      29.94F
DE KALB*       CLOUDY    45  35  69 N3        29.94F
PERU*          CLOUDY    45  37  73 NE8       29.91F
$$

ILZ005-006-012>014-019>023-281500-
NORTHEAST ILLINOIS

CITY           SKY/WX    TMP DP  RH WIND       PRES   REMARKS
CHICAGO-OHARE  PTSUNNY   48  34  58 CALM      29.94S
CHICAGO-MIDWAY PTSUNNY   50  40  68 CALM      29.94S
AURORA         MOSUNNY   47  37  68 NE6       29.94S
LANSING*       MOSUNNY   52  47  84 CALM      29.93F
JOLIET*        MOSUNNY   50  42  75 NE6       29.92F
WAUKEGAN       PTSUNNY   46  34  62 S8        29.95R
DUPAGE AIRPORT CLOUDY    48  37  65 CALM      29.93F
KANKAKEE*      CLOUDY    52  46  79 CALM      29.93R
WHEELING       MOSUNNY   47  36  65 CALM      29.96R
MORRIS*        MOSUNNY   48  40  75 CALM      29.91F
ROMEOVILLE*    PTSUNNY   48  44  86 NE5       29.93F
NORTHERLY ISL    N/A     49  39  68 E6          N/A
$$

LMZ740>746-281500-
SOUTHERN LAKE MICHIGAN

STATION/POSITION SKY/WX   TEMP    WIND        PRES    VSBY  WAVE
                          AIR SEA DIR/SP/G                  HT/PER
                          (F)     (DEG/KT/KT) (MB)    (MI)  (FT/S)
SOUTHERN BUOY              41 41  250/  6/  8 1014.8          1/ 4
HARRISON CRIB              48     140/  4/  5   N/A
BURNHAM HARBOR             48      70/  5       N/A
CALUMET HARBOR             47      40/  6/  8 1013.9R
BURNS HARBOR               51     200/  9/ 12 1014.9S
MICHIGAN CITY              49     210/  4/  7   N/A
MICHIGAN CITY 6N           47 47                N/A           0
ST. JOSEPH                 46 48  350/  2/  4 1015.6          1/ 3
$$

ILZ025>027-034>036-040-047-049-050-058-095>099-281500-
WEST-CENTRAL ILLINOIS

CITY           SKY/WX    TMP DP  RH WIND       PRES   REMARKS
QUINCY         CLOUDY    51  49  92 SE13      29.83R
GALESBURG*     DRIZZLE   44  37  78 NE10      29.88R
MACOMB*        CLOUDY    45  45  98 E10       29.89S
JACKSONVILLE*  CLOUDY    52  49  89 SE13      29.86R
PITTSFIELD*    CLOUDY    53  51  93 E8        29.85R
$$

ILZ028>032-037-038-041>044-048-051>054-059>061-281500-
CENTRAL ILLINOIS

CITY           SKY/WX    TMP DP  RH WIND       PRES   REMARKS
PONTIAC        CLOUDY    51  49  94 E5        29.92R
BLOOMINGTON    CLOUDY    50  47  89 S14       29.92R
DECATUR        CLOUDY    52  49  89 SE8       29.91S
PEORIA         LGT RAIN  49  47  93 E6        29.90R
LACON*         CLOUDY    46  41  82 NE7       29.90S
LINCOLN*       CLOUDY    53  50  89 SE7       29.90S
SPRINGFIELD    CLOUDY    54  49  83 SE13      29.88F
TAYLORVILLE    CLOUDY    52  48  84 SE13      29.88S
$$

ILZ033-039-045-046-055>057-062-063-281500-
EAST-CENTRAL ILLINOIS

CITY           SKY/WX    TMP DP  RH WIND       PRES   REMARKS
CHAMPAIGN      CLOUDY    51  47  86 SE10      29.94R
RANTOUL*       CLOUDY    52  49  88 SE7       29.94R
MATTOON        CLOUDY    51  47  86 SE13      29.91F
PARIS*         CLOUDY    51  48  90 SE10      29.97R
$$

ILZ079-100>102-281500-
SOUTHWEST ILLINOIS

CITY           SKY/WX    TMP DP  RH WIND       PRES   REMARKS
ALTON          LGT RAIN  52  50  93 SE10G16   29.87R
BELLEVILLE     CLOUDY    53  53 100 E7        29.88R
CAHOKIA*       CLOUDY    54  51  90 SE6       29.87R
SPARTA*        CLOUDY    55  52  88 SE5       29.89
$$

ILZ064>066-069>071-074>076-080>082-084>086-088>090-092>094-281500-
SOUTH-CENTRAL ILLINOIS

CITY           SKY/WX    TMP DP  RH WIND       PRES   REMARKS
CARBONDALE     CLOUDY    56  53  90 SE7       29.86S
CAIRO*         MOSUNNY   59  53  81 E6        29.86F
EFFINGHAM*     RAIN      51  50  96 E10       29.94S
MARION         CLOUDY    57  55  94 SE12      29.88S
MT. VERNON     PTSUNNY   55  51  86 E8        29.90R
CENTRALIA*     PTSUNNY   54  52  93 E3        29.89R
SALEM*         CLOUDY    54  50  86 E5        29.90R
METROPOLIS*    CLOUDY    57  53  84 E7        29.88F
$$

ILZ067-068-072-073-078-083-087-091-281500-
SOUTHEAST ILLINOIS

CITY           SKY/WX    TMP DP  RH WIND       PRES   REMARKS
LAWRENCEVILLE  CLOUDY    53  50  89 E8        29.95R
FLORA*         CLOUDY    54  51  89 E8        29.91F
FAIRFIELD*     CLOUDY    55  51  85 E7        29.89F
HARRISBURG*    PTSUNNY   56  52  88 SE6       29.90R
ROBINSON*      CLOUDY    50  47  91 E8        29.96R
CARMI*         MOSUNNY   56  52  87 E14       29.89F
$$

ABBREVIATIONS USED IN REMARKS
   TC - TEMPERATURE IN CELSIUS
  WCI - WIND CHILL INDEX
   HX - HEAT INDEX
  VSB - VISIBILITY
$$





USA.gov is the U.S. government's official web portal to all federal, state and local government web resources and services.